Index of /userdata/files

[ICO]NameLast modifiedSizeDescription

[DIR]Parent Directory  -  
[TXT]!readme.txt25-Feb-2018 18:48 70  
[IMG]06_1.jpg26-Feb-2018 17:19 18K 
[IMG]09_mw_logo_rgb_transparent.png30-Sep-2018 17:48 180K 
[IMG]1_history-ssem.jpg26-Feb-2018 17:19 113K 
[IMG]2_history-edsac.jpg26-Feb-2018 17:19 96K 
[IMG]3_history-wartime.jpg26-Feb-2018 17:19 62K 
[   ]3_post_office_mats_3.pdf26-Feb-2018 17:19 218K 
[IMG]3d_printer.jpg26-Feb-2018 17:19 24K 
[IMG]3img_0309.jpg29-Jun-2019 17:22 104K 
[IMG]3trs-80_resized.jpg29-Jun-2019 17:22 65K 
[IMG]4_history-ferranti.jpg26-Feb-2018 17:19 92K 
[IMG]5_history-leo.jpg26-Feb-2018 17:19 64K 
[IMG]6_history-1945-1970.jpg26-Feb-2018 17:19 68K 
[IMG]7-google-logo-style.gif26-Feb-2018 17:19 17K 
[IMG]7_history-manchester-university.jpg26-Feb-2018 17:19 66K 
[IMG]8_inch_floppy.jpg26-Feb-2018 17:19 10K 
[IMG]20th_header_700.jpg26-Feb-2018 17:19 31K 
[IMG]30-years_of_the_bbc.jpg26-Feb-2018 17:19 71K 
[IMG]30_1.jpg26-Feb-2018 17:19 27K 
[   ]64-software.pdf26-Feb-2018 17:19 937K 
[IMG]70s.jpg26-Feb-2018 17:19 19K 
[IMG]80s.jpg26-Feb-2018 17:19 20K 
[IMG]90s.jpg26-Feb-2018 17:19 20K 
[   ]128d_personal_computer.pdf26-Feb-2018 17:19 2.1M 
[IMG]128k-campaign-small.png26-Feb-2018 17:19 5.4K 
[IMG]128k-campaign.png26-Feb-2018 17:19 4.7K 
[IMG]220px-tempest_2000_jaguar_cover.jpg26-Feb-2018 17:19 55K 
[IMG]360-entrance.jpg26-Feb-2018 17:19 12K 
[IMG]360-main.jpg26-Feb-2018 17:19 13K 
[IMG]360-office.jpg26-Feb-2018 17:19 15K 
[   ]1520_printer-plotter.pdf26-Feb-2018 17:19 1.0M 
[IMG]2600-invaders.jpg26-Feb-2018 17:19 12K 
[IMG]2600_joy.jpg26-Feb-2018 17:19 7.8K 
[IMG]943869_1222632764419029_3289674512557443065_n.jpg26-Feb-2018 17:19 34K 
[IMG]1676062-cc_gaming0003-colourised-border.jpg26-Feb-2018 17:19 79K 
[   ]20061213-Computing-History-Meeting-Minutes-13-Dec-06.pdf26-Feb-2018 17:19 9.3K 
[   ]20070223-Computing-History-Meeting-Minutes-23-Feb-07.pdf26-Feb-2018 17:19 11K 
[   ]20070326-Computing-History-Meeting-Minutes-26-March-07.pdf26-Feb-2018 17:19 20K 
[   ]20070430-computing-history-meeting-minutes-30-aprill-07.pdf26-Feb-2018 17:19 15K 
[   ]20070507-computing-history-meeting-minutes-07-may-07.pdf26-Feb-2018 17:19 17K 
[   ]20070703_computing-history-minutes_2007_jul_3.pdf26-Feb-2018 17:19 13K 
[IMG]Block-Party-2017.png26-Feb-2018 17:19 41K 
[IMG]Bubbles Whiting 1 doc (3).jpg26-Feb-2018 17:19 89K 
[IMG]Bubbles Whiting 2 doc (3).jpg26-Feb-2018 17:19 90K 
[IMG]Bubbles Whiting 3 doc (3).jpg26-Feb-2018 17:19 90K 
[IMG]Bubbles Whiting 4 doc (3).jpg26-Feb-2018 17:19 88K 
[DIR]David/25-Feb-2018 19:13 -  
[IMG]Donate-TXT.JPG26-Feb-2018 17:19 1.5M 
[IMG]HLFFooter.jpg26-Feb-2018 17:19 287K 
[   ]HP88780-User-Manual.pdf26-Feb-2018 17:19 3.8M 
[IMG]Music-4-Geeks.png26-Feb-2018 17:19 331K 
[TXT]Photograph.htm28-Jul-2019 15:12 839  
[   ]RaspberryPiBeginnersGuide.pdf26-Feb-2018 17:19 2.3M 
[IMG]Recycling-tech.jpg26-Feb-2018 17:19 59K 
[DIR]Rockwell900Manuals/25-Feb-2018 19:13 -  
[IMG]SoundRecording.png26-Feb-2018 17:19 95K 
[IMG]VIVA_banner.png26-Feb-2018 17:19 455K 
[IMG]VIVAfooterbanner.png26-Feb-2018 17:19 38K 
[DIR]VivaComputer/25-Feb-2018 19:13 -  
[IMG]VivaInterview.png26-Feb-2018 17:19 82K 
[IMG]_mg_9055_lr.jpg26-Feb-2018 17:19 278K 
[IMG]_tws9095.jpg26-Feb-2018 17:19 100K 
[IMG]a4-revival.gif26-Feb-2018 17:19 89K 
[IMG]abacus.png26-Feb-2018 17:19 57K 
[IMG]abugpics.jpg08-Jun-2019 12:13 257K 
[IMG]abugpics2.jpg08-Jun-2019 12:18 309K 
[IMG]accred-cert-small.jpg08-May-2019 15:42 11K 
[IMG]accredited_museum_web.png20-Mar-2019 11:05 173K 
[IMG]achieve.png26-Feb-2018 17:19 95K 
[   ]acorn_user.pdf26-Feb-2018 17:19 1.7M 
[IMG]acorns1.png26-Feb-2018 17:19 55K 
[IMG]acornworldwebheader.jpg07-Jul-2019 15:20 81K 
[IMG]acoustic_coupler.png26-Feb-2018 17:19 54K 
[IMG]activity-days-pdf_image.jpg26-Feb-2018 17:19 9.4K 
[IMG]acton-school-quote.gif26-Feb-2018 17:19 3.1K 
[IMG]ada-in-performance.jpg26-Feb-2018 17:19 104K 
[IMG]ada-lovelace-day.jpg26-Feb-2018 17:19 80K 
[IMG]ada-lovelace-form.jpg26-Feb-2018 17:19 10K 
[IMG]ada-lovelace.jpg26-Feb-2018 17:19 69K 
[IMG]afo-dowtk2013.png26-Feb-2018 17:19 11K 
[IMG]ageofarcadewidegraphics.jpg17-May-2019 14:31 237K 
[IMG]ageofarcadewidegraphics2.jpg17-May-2019 14:31 273K 
[IMG]ald_quiz.jpg22-Sep-2018 10:47 26K 
[IMG]alli-gaming-night.png26-Feb-2018 17:19 89K 
[IMG]altair.png26-Feb-2018 17:19 43K 
[IMG]amac1.png26-Feb-2018 17:19 192K 
[IMG]amigagc.png26-Feb-2018 17:19 36K 
[IMG]andy-taylor-steve-furber.jpg26-Feb-2018 17:19 11K 
[IMG]anjali1.png26-Feb-2018 17:19 247K 
[IMG]apple-macintosh.jpg26-Feb-2018 17:19 10K 
[IMG]apple.png26-Feb-2018 17:19 41K 
[IMG]apple4.png26-Feb-2018 17:19 65K 
[IMG]apple_mac.jpg26-Feb-2018 17:19 69K 
[IMG]apple_mac_plus.jpg26-Feb-2018 17:19 16K 
[IMG]appleemate.png26-Feb-2018 17:19 75K 
[IMG]april.jpg26-Feb-2018 17:19 16K 
[IMG]arbury-primary-school.jpg26-Feb-2018 17:19 59K 
[IMG]arc-aid-email.jpg26-Feb-2018 17:19 93K 
[IMG]arcadie_video.jpg26-Feb-2018 17:19 24K 
[IMG]archive.png26-Feb-2018 17:19 17K 
[   ]archivist_job_description.pdf19-Nov-2018 09:52 1.6M 
[IMG]arduino-tools-trade.jpg26-Feb-2018 17:19 46K 
[IMG]argus_100-small.jpg26-Feb-2018 17:19 20K 
[IMG]arm-footer.jpg26-Feb-2018 17:19 29K 
[IMG]arm-invite.jpg26-Feb-2018 17:19 21K 
[   ]artemis_distributed_processing_for_project_management.pdf26-Feb-2018 17:19 28M 
[IMG]article_1001.jpg26-Feb-2018 17:19 15K 
[IMG]article_1002.jpg26-Feb-2018 17:19 15K 
[IMG]article_1003.jpg26-Feb-2018 17:19 9.7K 
[IMG]ashens.jpg26-Feb-2018 17:19 53K 
[IMG]ashens2.jpg26-Feb-2018 17:19 59K 
[IMG]atari800.jpg26-Feb-2018 17:19 27K 
[IMG]atari2600action[1].jpg26-Feb-2018 17:19 11K 
[IMG]awating-image.png26-Feb-2018 17:19 9.9K 
[IMG]b_bacs.gif26-Feb-2018 17:19 3.5K 
[IMG]b_justgiving.gif26-Feb-2018 17:19 4.1K 
[IMG]b_paypal.gif26-Feb-2018 17:19 4.2K 
[IMG]babycham-hi-res.jpg26-Feb-2018 17:19 728K 
[IMG]babycham.jpg26-Feb-2018 17:19 113K 
[IMG]bandersnatch-trs-80.jpg29-Dec-2018 19:41 223K 
[IMG]banner-corporate-donation.jpg26-Feb-2018 17:19 46K 
[IMG]banner01.jpg26-Feb-2018 17:19 441K 
[   ]barking-dagenham-letters-bbc-micro_primary-schools-1982.pdf26-Feb-2018 17:19 229K 
[   ]barking-dagenham-letters-bbc-micro_primary-schools-1986.pdf26-Feb-2018 17:19 296K 
[IMG]bbc-master.jpg26-Feb-2018 17:19 24K 
[IMG]bbc-television.gif26-Feb-2018 17:19 1.0K 
[IMG]bbc_model_b.jpg26-Feb-2018 17:19 90K 
[IMG]bbcbook.png26-Feb-2018 17:19 155K 
[IMG]bbcmicro.png26-Feb-2018 17:19 53K 
[IMG]bcl_susie_-_tony.jpg26-Feb-2018 17:19 265K 
[IMG]beth.jpg26-Feb-2018 17:19 11K 
[IMG]beth.png26-Feb-2018 17:19 575K 
[IMG]big-trak-1.jpg27-May-2018 11:54 453K 
[IMG]big_trak.jpg26-Feb-2018 17:19 178K 
[IMG]binatone.png26-Feb-2018 17:19 65K 
[IMG]birthday-parties-email.jpg26-Feb-2018 17:19 48K 
[IMG]birthday-parties.jpg26-Feb-2018 17:19 63K 
[IMG]blee.png26-Feb-2018 17:19 51K 
[IMG]blue-line.png26-Feb-2018 17:19 232  
[   ]bmc.pdf26-Feb-2018 17:19 886K 
[IMG]bnnr2012v.png26-Feb-2018 17:19 7.8K 
[   ]board_index.pdf26-Feb-2018 17:19 961K 
[IMG]book-icon.png08-Apr-2019 16:42 5.3K 
[IMG]book-online.png26-Feb-2018 17:19 2.0K 
[IMG]book3.png26-Feb-2018 17:19 302K 
[IMG]book4.png26-Feb-2018 17:19 308K 
[IMG]book_now_icon.jpg26-Feb-2018 17:19 3.1K 
[IMG]booking-form.gif26-Feb-2018 17:19 1.0K 
[   ]breaking_news_280208.pdf26-Feb-2018 17:19 461K 
[IMG]brenda-romero-game-designer.jpg26-Feb-2018 17:19 120K 
[IMG]brian-volunteer.jpg22-Jun-2018 14:39 120K 
[IMG]brochure.jpg26-Feb-2018 17:19 28K 
[   ]bt_merlin_m2105_user_guide.pdf26-Feb-2018 17:19 2.0M 
[IMG]bubbles_whiting_1__3.jpg26-Feb-2018 17:19 89K 
[IMG]bubbles_whiting_2_3.jpg26-Feb-2018 17:19 90K 
[IMG]bubbles_whiting_3_3.jpg26-Feb-2018 17:19 90K 
[IMG]bubbles_whiting_4_3.jpg26-Feb-2018 17:19 88K 
[IMG]bubbles_whiting_4_doc_3.jpg26-Feb-2018 17:19 88K 
[IMG]bug_your_bedroom.jpg26-Feb-2018 17:19 410K 
[IMG]build-a-z80.jpg26-Feb-2018 17:19 301K 
[IMG]build_a_magic_radio.jpg26-Feb-2018 17:19 332K 
[IMG]build_your_own_adventure_game.jpg26-Feb-2018 17:19 91K 
[   ]bus_26-Feb-2018 17:19 431K 
[IMG]button-event-booking-form.png26-Feb-2018 17:19 2.7K 
[IMG]button-view.jpg26-Feb-2018 17:19 2.3K 
[IMG]buy-something.jpg26-Feb-2018 17:19 17K 
[IMG]ca_logo_cmyk_primary.jpg30-Sep-2018 17:43 1.0M 
[IMG]caffeine-2.jpg26-Feb-2018 17:19 14K 
[IMG]calculator.png26-Feb-2018 17:19 67K 
[IMG]calculator1.png26-Feb-2018 17:19 82K 
[IMG]calculator2.png26-Feb-2018 17:19 50K 
[IMG]called-to-say-thanks.jpg26-Feb-2018 17:19 68K 
[IMG]cambridge-building.jpg26-Feb-2018 17:19 43K 
[IMG]cambridge-museum-header.jpg26-Feb-2018 17:19 56K 
[IMG]cambridge-natural-home.gif26-Feb-2018 17:19 11K 
[IMG]cambridge_game_devs.jpg02-Mar-2018 12:26 51K 
[IMG]camera.png26-Feb-2018 17:19 63K 
[IMG]canon1-063e.jpg26-Feb-2018 17:19 171K 
[IMG]cards-website-2.jpg26-Feb-2018 17:19 164K 
[IMG]cards-website-3.jpg26-Feb-2018 17:19 214K 
[IMG]cards-website.jpg26-Feb-2018 17:19 142K 
[IMG]carrier-bag.png26-Feb-2018 17:19 24K 
[IMG]cbvg.png26-Feb-2018 17:19 228K 
[IMG]cch-44-of-157.jpg26-Feb-2018 17:19 43K 
[IMG]cch-65.jpg26-Feb-2018 17:19 108K 
[IMG]cch-move-group.jpg26-Feb-2018 17:19 104K 
[IMG]cch-move-ibm.jpg26-Feb-2018 17:19 33K 
[IMG]cch.jpg26-Feb-2018 17:19 51K 
[   ]cch_cambridge_full_press_release.doc26-Feb-2018 17:19 47K 
[   ]cch_education_coordinator_aa.pdf26-Feb-2018 17:19 345K 
[   ]cch_education_officer_aa.pdf26-Feb-2018 17:19 332K 
[   ]cch_microsoft_3.doc26-Feb-2018 17:19 45K 
[   ]cch_museum_assistant.pdf26-Feb-2018 17:19 70K 
[IMG]cch_patron.jpg26-Feb-2018 17:19 1.5M 
[   ]cch_volunteer_coordinator_aa.pdf26-Feb-2018 17:19 342K 
[IMG]cch_welcome_glebelands.jpg23-Nov-2018 15:46 7.4M 
[IMG]cfch-logo-blue-transparent-background-small.png26-Feb-2018 17:19 171K 
[IMG]cfch-logo-white-blue-background-35cm.jpg03-Jun-2019 11:56 959K 
[   ]cfchdavidjonesimages.zip29-Jun-2019 18:17 3.4M 
[   ]ch_anglia_tv.pdf26-Feb-2018 17:19 411K 
[   ]ch_c_e_news_wednesday_9_march_2011.pdf26-Feb-2018 17:19 67K 
[   ]ch_c_evening_news_dec_2008.pdf26-Feb-2018 17:19 64K 
[   ]ch_camb_eve_news.pdf26-Feb-2018 17:19 151K 
[   ]ch_camb_news_2_290908.pdf26-Feb-2018 17:19 386K 
[   ]ch_cambridge_business_history_man_.pdf26-Feb-2018 17:19 549K 
[   ]ch_cb9_july_2008.pdf26-Feb-2018 17:19 168K 
[   ]ch_eadt.pdf26-Feb-2018 17:19 701K 
[   ]ch_echo_210808.pdf26-Feb-2018 17:19 119K 
[IMG]ch_echo_h_hauser_15_12_2011.jpg26-Feb-2018 17:19 159K 
[IMG]ch_green.jpg26-Feb-2018 17:19 26K 
[   ]ch_h_echo_march_2008.pdf26-Feb-2018 17:19 263K 
[   ]ch_h_w_n_23-10-2009.pdf26-Feb-2018 17:19 112K 
[   ]ch_h_weekly_news_09-10-2009.pdf26-Feb-2018 17:19 128K 
[   ]ch_hackers.pdf26-Feb-2018 17:19 67K 
[   ]ch_hav_echo_08-10-2009_2.pdf26-Feb-2018 17:19 91K 
[   ]ch_haverhill_echo_120511.pdf26-Feb-2018 17:19 132K 
[   ]ch_haverhill_echo_domesday_190511.pdf26-Feb-2018 17:19 101K 
[   ]ch_haverhill_life_1_and_2.pdf26-Feb-2018 17:19 911K 
[   ]ch_haverhill_weekly_news_article_03_03_2011.pdf26-Feb-2018 17:19 14K 
[   ]ch_hwnews_220808.pdf26-Feb-2018 17:19 94K 
[   ]ch_microsoft_h_w_news_130511.pdf26-Feb-2018 17:19 32K 
[   ]ch_papers_050908.pdf26-Feb-2018 17:19 1.7M 
[   ]ch_ql_news_feb09-amended__2_.pdf26-Feb-2018 17:19 65K 
[IMG]ch_red.jpg26-Feb-2018 17:19 18K 
[   ]ch_weekly_news.pdf26-Feb-2018 17:19 91K 
[   ]child_protection_policy.pdf26-Feb-2018 17:19 779K 
[IMG]children-with-raspberry-pi.jpg26-Feb-2018 17:19 17K 
[IMG]chip.png26-Feb-2018 17:19 49K 
[IMG]chipps-logo.jpg26-Feb-2018 17:19 17K 
[IMG]chompy.png26-Feb-2018 17:19 154K 
[IMG]chris-acorns.jpg26-Feb-2018 17:19 98K 
[IMG]chris_talk_aug_2019.jpg13-Aug-2019 20:14 654K 
[IMG]christmas-events.jpg10-Nov-2018 20:01 144K 
[IMG]christmas-image.jpg26-Feb-2018 17:19 53K 
[IMG]christmas-new-years-opening.png26-Feb-2018 17:19 13K 
[IMG]christmas_keyboard.jpg26-Feb-2018 17:19 44K 
[IMG]christmas_mailer_for_museum.jpg26-Feb-2018 17:19 582K 
[IMG]christmas_tree.jpg26-Feb-2018 17:19 27K 
[IMG]christmas_tree.png26-Feb-2018 17:19 20K 
[IMG]circuit_board.png26-Feb-2018 17:19 89K 
[IMG]circuitry.png26-Feb-2018 17:19 81K 
[IMG]citrix_right.png26-Feb-2018 17:19 43K 
[IMG]citrixleft.png26-Feb-2018 17:19 297K 
[IMG]classroom3.png26-Feb-2018 17:19 131K 
[IMG]click-1.png26-Feb-2018 17:19 29K 
[IMG]click-2.png26-Feb-2018 17:19 103K 
[IMG]clickherexmas.png01-Dec-2018 15:35 5.8K 
[IMG]cloak-video.gif26-Feb-2018 17:19 38K 
[IMG]cloak.gif26-Feb-2018 17:19 3.6K 
[IMG]cm_edit1.jpg01-Oct-2018 11:42 11M 
[IMG]cm_edit18_crop.jpg19-Jul-2019 13:59 8.6M 
[   ]cmu.pdf26-Feb-2018 17:19 1.4M 
[IMG]co2_workshop.png22-Jan-2019 10:40 315K 
[IMG]coa.jpg26-Feb-2018 17:19 26K 
[   ]coding_et_al.doc26-Feb-2018 17:19 63K 
[IMG]coding_webemail.png10-Mar-2019 17:23 184K 
[IMG]coding_webemail2.png10-Mar-2019 17:23 184K 
[IMG]coding_webemail4.png22-Mar-2019 12:36 184K 
[IMG]coding_webemail5.png22-Mar-2019 12:36 184K 
[IMG]coding_webfb.png10-Mar-2019 12:47 282K 
[IMG]codingbbc.png26-Feb-2018 17:19 288K 
[IMG]coldhams-road-entrance.png26-Feb-2018 17:19 367K 
[IMG]colins-flat-1.jpg29-Dec-2018 23:03 226K 
[IMG]colins-flat-2.jpg29-Dec-2018 23:11 167K 
[IMG]colins-flat-3.jpg29-Dec-2018 23:04 277K 
[IMG]colins-flat-4.jpg29-Dec-2018 23:07 316K 
[IMG]colins-flat-5.jpg30-Dec-2018 13:10 275K 
[IMG]colins-flat-6.jpg30-Dec-2018 13:11 227K 
[IMG]colins-flat-7.jpg30-Dec-2018 13:14 211K 
[   ]colintullytribute.pdf22-Jan-2019 16:18 442K 
[   ]collections_development_policy,_12-05-2018.pdf17-Jun-2018 14:25 938K 
[IMG]comedy-video.png26-Feb-2018 17:19 83K 
[   ]commodore-computer-compunet-alien.pdf26-Feb-2018 17:19 3.5M 
[IMG]commodore_64.jpg26-Feb-2018 17:19 117K 
[   ]commodore_computer.pdf26-Feb-2018 17:19 605K 
[   ]commodore_hardware.pdf26-Feb-2018 17:19 918K 
[   ]commodore_hardware_2.pdf26-Feb-2018 17:19 829K 
[   ]commodore_letter.pdf26-Feb-2018 17:19 388K 
[VID]comp-test.mp426-Feb-2018 17:19 2.4M 
[   ]comprehensive_leo_bibliography.doc26-Feb-2018 17:19 65K 
[IMG]comptometer.png26-Feb-2018 17:19 71K 
[IMG]computer-studies-impact.jpg04-Jul-2019 14:41 110K 
[   ]computer.pdf01-Oct-2018 11:42 2.8M 
[   ]computer_centre_grabbed_ima..pdf...pdf26-Feb-2018 17:19 144K 
[IMG]computer_museum_philips_p354.jpg26-Feb-2018 17:19 14K 
[IMG]computing-museum_arm_redgate.jpg26-Feb-2018 17:19 63K 
[   ]computing_activity_days.pdf26-Feb-2018 17:19 895K 
[   ]computing_history_-_email_version.pdf26-Feb-2018 17:19 1.0M 
[   ]computing_in_schools_-_the_early_years.pdf26-Feb-2018 17:19 286K 
[   ]control_data_cyber_170_computer_system.pdf26-Feb-2018 17:19 2.8M 
[IMG]cook-building.jpg26-Feb-2018 17:19 135K 
[IMG]core.png26-Feb-2018 17:19 74K 
[   ]corporate_events.pdf26-Feb-2018 17:19 2.2M 
[IMG]corporate_events.png26-Feb-2018 17:19 271K 
[IMG]corx-video.jpg26-Feb-2018 17:19 26K 
[   ]cover.pdf26-Feb-2018 17:19 76K 
[IMG]cph_arm_redgate_02.jpg26-Feb-2018 17:19 250K 
[IMG]csheadshot_bigger.jpg26-Feb-2018 17:19 2.2K 
[IMG]ctt-room-1.jpg26-Feb-2018 17:19 155K 
[IMG]ctt-room-2.jpg26-Feb-2018 17:19 119K 
[IMG]ctt-room-3.jpg26-Feb-2018 17:19 137K 
[IMG]d0_1.jpg26-Feb-2018 17:19 32K 
[IMG]d5be18a0-0a07-4efc-acd8-7a908e21e568_resized.jpg29-Jun-2019 16:55 57K 
[IMG]d5be18a0-0a07-4efc-acd8-7a908e21e568_resized2.jpg29-Jun-2019 17:02 46K 
[IMG]darktrace_web3emailer.jpg23-Aug-2019 14:13 138K 
[IMG]darktrace_web3emailerimg.jpg23-Aug-2019 14:56 69K 
[IMG]darktrace_web3emailerimg2.jpg23-Aug-2019 14:56 69K 
[IMG]darktracebooknow.jpg23-Aug-2019 15:05 15K 
[   ]data-sheet-vydec-1800.pdf26-Feb-2018 17:19 350K 
[IMG]databasew.png26-Feb-2018 17:19 25K 
[IMG]datacenter.jpg26-Feb-2018 17:19 8.8K 
[IMG]davinci.png26-Feb-2018 17:19 122K 
[IMG]days-inn.jpg26-Feb-2018 17:19 13K 
[   ]dec-microtape-555-tape-transport-550-tape-control-programs.pdf26-Feb-2018 17:19 2.6M 
[   ]dec-pdp-5-sides-1-2.pdf26-Feb-2018 17:19 242K 
[   ]dec-pdp-5.pdf26-Feb-2018 17:19 2.6M 
[   ]dec-precision-incremental-crt-display-type-340.pdf26-Feb-2018 17:19 642K 
[   ]digital-precision-crt-display-type-30.pdf26-Feb-2018 17:19 559K 
[IMG]digital-xmas-tree.png26-Feb-2018 17:19 345K 
[   ]dixons-christmas-flyer-1993.pdf26-Feb-2018 17:19 8.2M 
[IMG]domesday-2.jpg26-Feb-2018 17:19 37K 
[IMG]domesday-article.jpg26-Feb-2018 17:19 32K 
[IMG]domesday-laserdisc.jpg26-Feb-2018 17:19 21K 
[IMG]domesday-reloaded.jpg26-Feb-2018 17:19 38K 
[IMG]domesday-screen-cap.jpg26-Feb-2018 17:19 14K 
[IMG]domesday-system-small.jpg26-Feb-2018 17:19 66K 
[IMG]domesday-system.jpg26-Feb-2018 17:19 49K 
[IMG]domesday-tape.jpg26-Feb-2018 17:19 12K 
[IMG]domesday-tim-alasdair-2.jpg26-Feb-2018 17:19 48K 
[IMG]domesday-video-2.jpg26-Feb-2018 17:19 12K 
[IMG]domesday-web.jpg26-Feb-2018 17:19 35K 
[IMG]donate-just-giving.gif26-Feb-2018 17:19 2.8K 
[IMG]donate-justgiving.png26-Mar-2019 13:29 19K 
[IMG]donate-paypal.gif26-Feb-2018 17:19 4.2K 
[   ]donate-txt.pdf26-Feb-2018 17:19 505K 
[IMG]donate.png26-Feb-2018 17:19 5.2K 
[IMG]donate_by_text.png26-Feb-2018 17:19 5.4K 
[IMG]donations.gif26-Feb-2018 17:19 12K 
[   ]donations__inventory_guidance_notes.doc26-Feb-2018 17:19 409K 
[IMG]dont-take-our-word.png26-Feb-2018 17:19 2.1K 
[IMG]drjeremyfreeman.jpg26-Feb-2018 17:19 57K 
[IMG]dryad-jason-fitzpatrick-richard-wood.jpg26-Feb-2018 17:19 168K 
[IMG]dryad-mag-tape-cabinets.jpg26-Feb-2018 17:19 23K 
[IMG]dryad-marconi-seawolf-aimer-trainer.jpg26-Feb-2018 17:19 14K 
[IMG]dryad-ops-room.jpg26-Feb-2018 17:19 68K 
[IMG]dryad-steve-curl.jpg26-Feb-2018 17:19 151K 
[IMG]dryad-teletype-and-sonar.jpg26-Feb-2018 17:19 128K 
[IMG]dscf3972.jpg26-Feb-2018 17:19 694K 
[IMG]dscf4027.jpg26-Feb-2018 17:19 259K 
[IMG]dscf4065.jpg26-Feb-2018 17:19 1.3M 
[IMG]dscf4088.jpg26-Feb-2018 17:19 66K 
[IMG]dscf4101_e.jpg26-Feb-2018 17:19 1.9M 
[IMG]dw_infamous_novacaps_6x4.jpg26-Feb-2018 17:19 115K 
[IMG]dw_novagentubes_6x4.jpg26-Feb-2018 17:19 70K 
[IMG]dw_novakeyingandgenerator_6x4.jpg26-Feb-2018 17:19 89K 
[IMG]e4g_newlogo-2015_600px.jpg06-May-2019 10:28 45K 
[IMG]eBEN-uPTON.jpg26-Feb-2018 17:19 120K 
[   ]eadt_27th_march_2009.pdf26-Feb-2018 17:19 107K 
[   ]eadt_270309.pdf26-Feb-2018 17:19 856K 
[IMG]easter-cracking.jpg09-Apr-2019 16:15 42K 
[IMG]easter-techno-fun.jpg26-Feb-2018 17:19 39K 
[IMG]easter_2017_mailer_image.jpg26-Feb-2018 17:19 643K 
[IMG]eben-goes-skiing.jpg22-Aug-2018 10:51 203K 
[IMG]eben-upton.jpg26-Feb-2018 17:19 17K 
[IMG]edu-email-1.jpg19-Jul-2018 15:22 67K 
[IMG]edu-email-2.jpg19-Jul-2018 15:27 74K 
[IMG]edu-email-3.jpg19-Jul-2018 15:29 76K 
[IMG]edu-video-background.jpg05-May-2019 15:39 56K 
[IMG]edu_blue3.jpg26-Feb-2018 17:19 74K 
[IMG]edu_red.jpg26-Feb-2018 17:19 158K 
[IMG]edu_tape_reader.jpg26-Feb-2018 17:19 50K 
[IMG]education-footer.jpg26-Feb-2018 17:19 38K 
[IMG]education-open-days.jpg26-Feb-2018 17:19 121K 
[IMG]education-visits.jpg26-Feb-2018 17:19 65K 
[IMG]electric_dreams.jpg26-Feb-2018 17:19 57K 
[   ]electroniccomputers28-Jan-2019 21:10 924K 
[   ]electroniccomputers.pdf28-Jan-2019 21:11 924K 
[IMG]electronics-lab-synth.jpg26-Feb-2018 17:19 258K 
[IMG]elliott.png26-Feb-2018 17:19 58K 
[   ]elliott_903_program_-_countdown_numbers_game_solver.pdf26-Feb-2018 17:19 707K 
[IMG]email-100pound-voucher.png26-Feb-2018 17:19 116K 
[IMG]email-footer-xmas-2016.png26-Feb-2018 17:19 25K 
[IMG]emcalculator.png26-Feb-2018 17:19 97K 
[IMG]emerald-kinights.jpg26-Feb-2018 17:19 521K 
[IMG]english_landscape_black.jpg06-May-2019 19:23 291K 
[IMG]enquiry1.png26-Feb-2018 17:19 660K 
[   ]etc_.pdf26-Feb-2018 17:19 207K 
[IMG]etch-a-sketch-volunteers.jpg26-Feb-2018 17:19 153K 
[IMG]event_calendar.png26-Feb-2018 17:19 9.5K 
[   ]events-booking-form-2016.pdf26-Feb-2018 17:19 416K 
[   ]events-booking-form-2018.pdf22-Nov-2018 15:58 387K 
[IMG]events-inspire.jpg26-Feb-2018 17:19 93K 
[IMG]events-small.jpg08-May-2019 15:50 55K 
[IMG]events.jpg16-Aug-2019 16:38 156K 
[IMG]exciting-projects.jpg26-Feb-2018 17:19 15K 
[IMG]exhibits.jpg26-Feb-2018 17:19 21K 
[   ]expression_20_aug2014.docx26-Feb-2018 17:19 38K 
[IMG]extra1.png26-Feb-2018 17:19 217K 
[IMG]extra2.png26-Feb-2018 17:19 180K 
[IMG]f8_1_b.jpg26-Feb-2018 17:19 16K 
[IMG]facebook.gif26-Feb-2018 17:19 2.9K 
[IMG]family-gaming-night.png26-Feb-2018 17:19 330K 
[IMG]family_gaming_night_-_psvr.jpg26-Feb-2018 17:19 193K 
[IMG]family_gaming_night_with_sega.jpg26-Feb-2018 17:19 569K 
[IMG]feedback-gamezone.png01-Mar-2019 12:29 8.3K 
[IMG]feedback-megaprocessor.png01-Mar-2019 12:26 14K 
[IMG]feedback-programming.png01-Mar-2019 12:26 14K 
[IMG]feedback-tour.png01-Mar-2019 12:26 8.5K 
[IMG]feedbackx.png26-Feb-2018 17:19 75K 
[   ]ferranti_argus_100_-_bloodhound_on_my_trail_published_2012_.pdf26-Feb-2018 17:19 646K 
[   ]ferranti_cop_j_and_m.pryce_paper.pdf.aylen_and_m.pryce_paper.pdf26-Feb-2018 17:19 424K 
[IMG]fgn-18032017.jpg26-Feb-2018 17:19 73K 
[IMG]fgn-header-youtube.jpg26-Feb-2018 17:19 83K 
[IMG]fgn-youtube.jpg18-Oct-2018 16:18 791K 
[IMG]fgncsf.jpg01-Mar-2019 22:29 82K 
[IMG]film-screenings.png26-Feb-2018 17:19 222K 
[IMG]filming.jpg26-Feb-2018 17:19 17K 
[IMG]find-out-more.png26-Feb-2018 17:19 2.5K 
[IMG]five.gif26-Feb-2018 17:19 1.5K 
[IMG]floppy.png26-Feb-2018 17:19 39K 
[IMG]floppy_disks.jpg26-Feb-2018 17:19 9.7K 
[   ]flyer,_university_of_london_institute_of_computer_science.pdf26-Feb-2018 17:19 898K 
[IMG]flyer.jpg21-Mar-2018 15:05 245K 
[IMG]fm1600-panel.jpg26-Feb-2018 17:19 43K 
[IMG]focusing.jpg26-Feb-2018 17:19 42K 
[IMG]forum.png26-Feb-2018 17:19 6.7K 
[IMG]founding_sponsors.gif26-Feb-2018 17:19 3.8K 
[IMG]foyer_-_delegates_-_web.jpg26-Feb-2018 17:19 56K 
[   ]fullsoldercomic_en.pdf03-Mar-2018 17:09 808K 
[IMG]fundraising-bar.gif26-Feb-2018 17:19 3.9K 
[IMG]fuze-classroom.jpg26-Feb-2018 17:19 68K 
[IMG]g_brick.jpg26-Feb-2018 17:19 3.6K 
[IMG]gadget-show-header.jpg26-Feb-2018 17:19 21K 
[IMG]gadget-show-live-09.gif26-Feb-2018 17:19 6.0K 
[IMG]gadget-show-live.gif26-Feb-2018 17:19 4.1K 
[IMG]gadget_show_small_pic.jpg26-Feb-2018 17:19 95K 
[IMG]game-3.jpg26-Feb-2018 17:19 407K 
[IMG]game-archive.jpg26-Feb-2018 17:19 45K 
[IMG]game1.png26-Feb-2018 17:19 163K 
[IMG]gamecontroller.png26-Feb-2018 17:19 57K 
[IMG]games_zone.png26-Feb-2018 17:19 76K 
[IMG]gameuser1.png26-Feb-2018 17:19 227K 
[IMG]gary-antcliffe.jpg26-Feb-2018 17:19 8.4K 
[IMG]gauntlet.jpg26-Feb-2018 17:19 19K 
[IMG]gconsole.png26-Feb-2018 17:19 22K 
[IMG]gec_4070_2.jpg26-Feb-2018 17:19 37K 
[   ]georgemanleyobit.pdf22-Jan-2019 12:18 48K 
[IMG]gift-ideas-fathers-day.png03-Jun-2019 13:57 249K 
[IMG]gift_aid_logo.png26-Feb-2018 17:19 14K 
[IMG]giftaid.png26-Feb-2018 17:19 5.1K 
[IMG]goody-bag.png26-Feb-2018 17:19 26K 
[IMG]google-sponsor.png26-Feb-2018 17:19 7.8K 
[   ]greening-jackson_leobrpaper-1.pdf22-Jan-2019 17:34 2.0M 
[IMG]group_shot.jpg26-Feb-2018 17:19 94K 
[IMG]gsl-2010.jpg26-Feb-2018 17:19 28K 
[IMG]gsl-email.jpg26-Feb-2018 17:19 8.3K 
[IMG]gsl-tv.jpg26-Feb-2018 17:19 37K 
[IMG]gsl-video.jpg26-Feb-2018 17:19 88K 
[IMG]gsl2010-stand.png26-Feb-2018 17:19 182K 
[   ]gsl_programme.pdf26-Feb-2018 17:19 792K 
[IMG]guides.jpg26-Feb-2018 17:19 566K 
[   ]h_ashby.pdf26-Feb-2018 17:19 373K 
[   ]h_echo_it_crowd_080109.pdf26-Feb-2018 17:19 614K 
[IMG]h_echo_r_spring.jpg26-Feb-2018 17:19 299K 
[   ]h_life_0609-1.pdf26-Feb-2018 17:19 155K 
[IMG]h_weekly_news_020409.jpg26-Feb-2018 17:19 80K 
[IMG]h_weekly_news_2_020409.jpg26-Feb-2018 17:19 83K 
[   ]h_weekly_news_11_020409.pdf26-Feb-2018 17:19 137K 
[   ]h_weekly_news_22_020409.pdf26-Feb-2018 17:19 137K 
[   ]h_weekly_news_180908.pdf26-Feb-2018 17:19 179K 
[IMG]hackers-delight.jpg26-Feb-2018 17:19 40K 
[IMG]hackers_delight_-_event.jpg26-Feb-2018 17:19 12K 
[IMG]half_term_hacking.jpg26-Feb-2018 17:19 43K 
[IMG]halloween-events.jpg26-Feb-2018 17:19 58K 
[IMG]hands-email.jpg26-Feb-2018 17:19 32K 
[IMG]happy-school.jpg26-Feb-2018 17:19 60K 
[IMG]hauser_studio_-_seating_-_web.jpg26-Feb-2018 17:19 45K 
[IMG]hav-week-news.jpg26-Feb-2018 17:19 11K 
[   ]haverhill_echo_260309_2.pdf26-Feb-2018 17:19 53K 
[   ]haverhill_weekly_news_130308_2.pdf26-Feb-2018 17:19 758K 
[   ]he_270809.pdf26-Feb-2018 17:19 58K 
[IMG]hedy.jpg26-Feb-2018 17:19 19K 
[IMG]hedy.png26-Feb-2018 17:19 36K 
[   ]hektor_user_manual.pdf26-Feb-2018 17:19 4.8M 
[IMG]hello-header.jpg26-Feb-2018 17:19 15K 
[IMG]her_story_logo.jpg17-Jul-2018 14:34 1.7M 
[IMG]hermann-hauser-patron-computer-museum-email.jpg26-Feb-2018 17:19 60K 
[IMG]hermann-hauser-patron-computer-museum.jpg26-Feb-2018 17:19 139K 
[IMG]hlf-view-archive.png26-Feb-2018 17:19 95K 
[   ]hlf_approved_leo_press_release.pdf08-Oct-2018 11:52 1.3M 
[IMG]hlf_english_compact_pantone.jpg05-Jan-2019 10:22 355K 
[IMG]hlfnl_blk.jpg26-Feb-2018 17:19 9.1K 
[IMG]hlfnl_blk_smal.jpg26-Feb-2018 17:19 7.5K 
[IMG]home-pic.jpg26-Feb-2018 17:19 42K 
[IMG]hopper.png26-Feb-2018 17:19 50K 
[IMG]hstry-cambridge-stories.jpg26-Feb-2018 17:19 61K 
[TXT]hstry-cambridge-stories.txt26-Feb-2018 17:19 316  
[IMG]hstry-game-changers.jpg26-Feb-2018 17:19 49K 
[TXT]hstry-game-changers.txt26-Feb-2018 17:19 317  
[IMG]hstry-generation-mashup.jpg26-Feb-2018 17:19 117K 
[TXT]hstry-generation-mashup.txt26-Feb-2018 17:19 316  
[IMG]hstry-synthesized.jpg26-Feb-2018 17:19 101K 
[TXT]hstry-synthesized.txt26-Feb-2018 17:19 310  
[   ]huk_220808.pdf26-Feb-2018 17:19 326K 
[   ]hwn200309.pdf26-Feb-2018 17:19 510K 
[IMG]ibm1.png26-Feb-2018 17:19 57K 
[IMG]icdvd.jpg26-Feb-2018 17:19 16K 
[   ]iconic_mobile_phones_-_feat..pdf...pdf26-Feb-2018 17:19 427K 
[IMG]iday-minioffice-dvd1_1.jpg26-Feb-2018 17:19 19K 
[IMG]image_and_text.jpg26-Feb-2018 17:19 27K 
[IMG]img_0244.jpg26-Feb-2018 17:19 54K 
[IMG]img_0248.jpg26-Feb-2018 17:19 85K 
[IMG]img_0250.jpg26-Feb-2018 17:19 67K 
[IMG]img_0251.jpg26-Feb-2018 17:19 110K 
[IMG]img_0252.jpg26-Feb-2018 17:19 133K 
[IMG]img_0253.jpg26-Feb-2018 17:19 54K 
[IMG]img_0255.jpg26-Feb-2018 17:19 63K 
[IMG]img_0304.jpg26-Feb-2018 17:19 24K 
[IMG]img_0309_resized.jpg29-Jun-2019 16:55 239K 
[IMG]img_0413.jpg26-Feb-2018 17:19 17M 
[IMG]img_0415.jpg26-Feb-2018 17:19 17M 
[IMG]img_1003.jpg26-Feb-2018 17:19 272K 
[IMG]img_1089.jpg26-Feb-2018 17:19 1.2M 
[IMG]img_2273.jpg26-Feb-2018 17:19 6.0M 
[IMG]img_2278.jpg26-Feb-2018 17:19 488K 
[IMG]img_2528.jpg08-Oct-2018 21:11 2.2M 
[IMG]img_5184.jpg13-Aug-2019 21:08 587K 
[IMG]img_5995.jpg26-Feb-2018 17:19 26K 
[IMG]img_6131-cropped_2.jpg26-Feb-2018 17:19 148K 
[IMG]img_6170.jpg26-Feb-2018 17:19 59K 
[IMG]img_8756_2_web.jpg26-Feb-2018 17:19 48K 
[IMG]img_20181025_154429776.jpg20-Nov-2018 15:14 2.5M 
[IMG]impact-letter.png01-Mar-2019 12:18 75K 
[   ]installation.pdf26-Feb-2018 17:19 821K 
[   ]instruction_set.pdf26-Feb-2018 17:19 4.2M 
[   ]interfaces.pdf26-Feb-2018 17:19 2.2M 
[IMG]invitation-header.jpg26-Feb-2018 17:19 33K 
[IMG]iot-postponed.jpg26-Feb-2018 17:19 286K 
[IMG]it-crowd.jpg26-Feb-2018 17:19 4.9K 
[IMG]it_crowd.jpg26-Feb-2018 17:19 12K 
[IMG]it_crowd_1.jpg26-Feb-2018 17:19 188K 
[IMG]it_crowd_2.jpg26-Feb-2018 17:19 50K 
[IMG]it_crowd_3.jpg26-Feb-2018 17:19 1.3M 
[IMG]itv-local.gif26-Feb-2018 17:19 1.8K 
[IMG]j_lyons_teashop.jpg03-Jun-2019 11:29 227K 
[IMG]jaguar-controller-pinout.gif26-Feb-2018 17:19 8.1K 
[IMG]jaguar-pcb.jpg26-Feb-2018 17:19 71K 
[IMG]jaquard.png26-Feb-2018 17:19 36K 
[IMG]jason-bradbury-sinclair-spectrum.jpg26-Feb-2018 17:19 3.4K 
[IMG]jason-fitzpatrick.jpg03-Mar-2018 21:34 7.3K 
[IMG]jason-fixed-our-beeb.jpg26-Feb-2018 17:19 9.8K 
[IMG]jason_reasonably_small.jpg26-Feb-2018 17:19 2.3K 
[IMG]jlyonsicecream.jpg03-Jun-2019 12:06 540K 
[IMG]jobs.png26-Feb-2018 17:19 88K 
[IMG]john-mcnaught-davies-bbc.jpg27-Jun-2018 22:29 47K 
[IMG]john-naughton-quote.gif26-Feb-2018 17:19 7.2K 
[IMG]john_simmons.jpg08-Oct-2018 20:48 209K 
[IMG]joystick.jpg26-Feb-2018 17:19 36K 
[IMG]joystick.png26-Feb-2018 17:19 58K 
[IMG]jupiter-ace.jpg26-Feb-2018 17:19 26K 
[IMG]just-giving.gif26-Feb-2018 17:19 3.6K 
[IMG]kate_exton_clip_image002.jpg26-Feb-2018 17:19 20K 
[   ]kings_ely_junior_school_feedback.pdf01-Mar-2019 12:18 549K 
[IMG]kiosk-please-wait.jpg26-Feb-2018 17:19 91K 
[IMG]kirigami.jpg28-Jul-2019 13:53 87K 
[IMG]ks1-2.png26-Feb-2018 17:19 405K 
[IMG]ks1-2x.png26-Feb-2018 17:19 79K 
[IMG]ks3.png26-Feb-2018 17:19 429K 
[IMG]ks4.png26-Feb-2018 17:19 291K 
[IMG]ks4b.png26-Feb-2018 17:19 397K 
[IMG]ks4x.png26-Feb-2018 17:19 59K 
[IMG]ks4x2.png26-Feb-2018 17:19 75K 
[IMG]l21c2779.jpg26-Feb-2018 17:19 91K 
[IMG]landfill.jpg26-Feb-2018 17:19 82K 
[IMG]last-donate.jpg26-Feb-2018 17:19 137K 
[IMG]lcs_chair_vr_demo_aug_2019.jpg13-Aug-2019 19:43 561K 
[IMG]lcs_chair_vr_demo_aug_2019_copy1.jpeg13-Aug-2019 19:51 543K 
[IMG]lcs_members_vr_demo_aug_2019.jpg13-Aug-2019 19:52 811K 
[IMG]lcs_members_vr_demo_v2_aug_2019.jpg13-Aug-2019 19:32 698K 
[IMG]learn_to_code.jpg26-Feb-2018 17:19 36K 
[   ]learning-boxes.pdf26-Feb-2018 17:19 225K 
[DIR]learning/25-Feb-2018 19:13 -  
[IMG]learning_box-pdf_image.jpg26-Feb-2018 17:19 8.6K 
[   ]learning_outside_the_classroom.pdf26-Feb-2018 17:19 138K 
[   ]lecture-9-mainframe-computing.pdf18-Feb-2019 21:03 1.3M 
[IMG]leo-1.jpg08-Oct-2018 21:13 101K 
[IMG]leo-computers.jpg08-Oct-2018 21:14 256K 
[   ]leo-press-release-photos.zip14-Mar-2018 15:03 154M 
[IMG]leo-reunion-2019-land.jpg06-May-2019 19:15 1.1M 
[IMG]leo-story-photograph1.jpg15-Mar-2018 13:45 102K 
[IMG]leo1_clean.jpg31-Jan-2019 15:11 3.8M 
[IMG]leo_ad_freelance_programmers.jpg09-Jun-2019 08:46 56K 
[IMG]leo_plaque_unveilers_small.jpg07-Jun-2019 17:47 393K 
[IMG]leo_reunion_leo_i_engineers.jpg06-May-2019 18:58 3.9M 
[   ]leobrpaper-1.pdf08-Jun-2019 15:45 2.0M 
[IMG]leopedia-logo.png09-Nov-2018 09:57 35K 
[IMG]leopedia-top-banner.png31-Jan-2019 15:26 28K 
[IMG]leoprojectupdates.png13-Aug-2019 19:20 1.9M 
[IMG]licensed-bar.jpg26-Feb-2018 17:19 16K 
[IMG]limited-places-left.png26-Feb-2018 17:19 37K 
[IMG]logic3-wii-arcade-stick.jpg26-Feb-2018 17:19 41K 
[IMG]logo-bleed_sml.jpg26-Feb-2018 17:19 12K 
[IMG]logo.jpg26-Feb-2018 17:19 397K 
[IMG]logosmall.png26-Feb-2018 17:19 52K 
[IMG]london-risc-os-show.gif26-Feb-2018 17:19 5.4K 
[IMG]longwebgraphic.png28-Jul-2018 20:35 85K 
[IMG]longwebgraphicsmall.png28-Jul-2018 20:41 30K 
[IMG]longwebgraphicsmall24.jpg13-Jan-2019 12:41 126K 
[IMG]lrcn-eu.jpg26-Feb-2018 17:19 30K 
[IMG]lyons-corner-house-now-a-wimpy-coventry-street-1966.jpg03-Jun-2019 11:39 708K 
[IMG]lyons_tea_enamel_sign_at_the_gcr.jpg03-Jun-2019 10:49 158K 
[IMG]lyonsleo_web2_event_image_cropped.jpeg13-Aug-2019 16:31 538K 
[IMG]m128_serial.jpg26-Feb-2018 17:19 6.4K 
[IMG]madeinjapanbrands.png21-Apr-2019 13:42 62K 
[IMG]madeinjapanbrands2.png21-Apr-2019 13:42 114K 
[IMG]magazine.png26-Feb-2018 17:19 133K 
[IMG]magnus-anderson.jpg03-Mar-2018 21:29 5.8K 
[   ]magpie.pdf26-Feb-2018 17:19 888K 
[   ]mail_on_sunday.pdf26-Feb-2018 17:19 90K 
[IMG]mailer-ada.jpg26-Feb-2018 17:19 53K 
[IMG]mailer-delia.jpg26-Feb-2018 17:19 38K 
[IMG]mailer-delta.jpg26-Feb-2018 17:19 71K 
[IMG]mailer-for-girls.jpg26-Feb-2018 17:19 108K 
[IMG]mailer-james.jpg26-Feb-2018 17:19 75K 
[IMG]mailer-lyons.jpg26-Feb-2018 17:19 83K 
[IMG]mailer-pexels.jpg26-Feb-2018 17:19 44K 
[IMG]mailer-privacy.jpg26-Feb-2018 17:19 29K 
[IMG]mailer-women.jpg26-Feb-2018 17:19 69K 
[IMG]mailerfooter.png30-Nov-2018 13:28 53K 
[IMG]mailerheader.png30-Nov-2018 12:45 14K 
[IMG]mailerheader2.png30-Nov-2018 12:56 5.5K 
[IMG]mailerheaderxmas.png01-Dec-2018 12:50 7.8K 
[IMG]mailerheaderxmas2.png01-Dec-2018 12:51 7.8K 
[IMG]main_gallery.png26-Feb-2018 17:19 118K 
[IMG]main_gallery_-_web.jpg26-Feb-2018 17:19 53K 
[IMG]makespace.png26-Feb-2018 17:19 15K 
[IMG]man.jpg26-Feb-2018 17:19 33K 
[IMG]martyn.jpg26-Feb-2018 17:19 12K 
[IMG]martyn.png26-Feb-2018 17:19 611K 
[IMG]matt-pi.jpg26-Feb-2018 17:19 34K 
[IMG]may_half_term_2018_composite.jpg12-May-2018 10:39 142K 
[IMG]me_and_my_3001.jpg26-Feb-2018 17:19 68K 
[IMG]mega2.jpg26-Feb-2018 17:19 167K 
[IMG]mega3.jpg26-Feb-2018 17:19 130K 
[IMG]megaall.png26-Feb-2018 17:19 226K 
[IMG]megaall2.png26-Feb-2018 17:19 107K 
[IMG]megaall3.png26-Feb-2018 17:19 199K 
[IMG]megaall4.png26-Feb-2018 17:19 661K 
[IMG]megablast-xenon2.jpg26-Feb-2018 17:19 194K 
[IMG]megap1.png26-Feb-2018 17:19 126K 
[IMG]megaplook.png26-Feb-2018 17:19 168K 
[IMG]megaprocessor-gif.gif26-Feb-2018 17:19 145K 
[IMG]megaprocessor-montage.jpg26-Feb-2018 17:19 175K 
[IMG]megaprocessor-students.jpg26-Feb-2018 17:19 137K 
[IMG]megaprocessor-tetris.jpg26-Feb-2018 17:19 114K 
[IMG]megaprocessor-video.jpg26-Feb-2018 17:19 76K 
[IMG]megaran-001.jpg26-Feb-2018 17:19 26K 
[IMG]megaran-back.jpg26-Feb-2018 17:19 71K 
[IMG]megaran.jpg26-Feb-2018 17:19 485K 
[IMG]members_card.jpg26-Feb-2018 17:19 19K 
[IMG]meridian-school-quote-2.gif26-Feb-2018 17:19 2.7K 
[IMG]meridian-school-quote.gif26-Feb-2018 17:19 5.8K 
[IMG]message_wand.jpg26-Feb-2018 17:19 78K 
[IMG]micro-bit-b.jpg26-Feb-2018 17:19 1.2M 
[IMG]micro-bit-f.jpg26-Feb-2018 17:19 1.8M 
[IMG]micro-bit.jpg26-Feb-2018 17:19 49K 
[IMG]micro_men.jpg26-Feb-2018 17:19 52K 
[IMG]microbee-screen.png26-Feb-2018 17:19 8.8K 
[IMG]microbee.jpg26-Feb-2018 17:19 16K 
[IMG]microbit_header.jpg26-Feb-2018 17:19 659K 
[IMG]microbug.jpg26-Feb-2018 17:19 1.1M 
[IMG]microsoft-school_visit.jpg26-Feb-2018 17:19 21K 
[IMG]microsoft_image_8114.jpg26-Feb-2018 17:19 158K 
[IMG]microsoft_z80-board_apple_iii.jpg26-Feb-2018 17:19 188K 
[IMG]mil_tape_change.jpg26-Feb-2018 17:19 10K 
[IMG]miner-pi.jpg26-Feb-2018 17:19 47K 
[IMG]mini-logo.png26-Feb-2018 17:19 19K 
[IMG]minibeast.jpg23-Mar-2018 10:50 21K 
[   ]misc_boards.pdf26-Feb-2018 17:19 629K 
[IMG]mj-hibbett.jpg26-Feb-2018 17:19 10K 
[IMG]mobilephone.png26-Feb-2018 17:19 72K 
[IMG]mod-computer.jpg26-Feb-2018 17:19 21K 
[IMG]mon.jpg26-Feb-2018 17:19 11K 
[IMG]montage.jpg26-Feb-2018 17:19 91K 
[IMG]more-items.jpg26-Feb-2018 17:19 16K 
[IMG]motorolap.png26-Feb-2018 17:19 42K 
[IMG]mouse.png26-Feb-2018 17:19 36K 
[IMG]mouse1.png26-Feb-2018 17:19 130K 
[IMG]mpx_brick.jpg26-Feb-2018 17:19 2.5K 
[IMG]ms-display-web.jpg02-Nov-2018 13:48 174K 
[IMG]ms-fd-img1.jpg02-Nov-2018 15:00 203K 
[IMG]mt_page_1.jpg26-Feb-2018 17:19 84K 
[IMG]mt_page_2.jpg26-Feb-2018 17:19 62K 
[IMG]mt_page_4.jpg26-Feb-2018 17:19 59K 
[IMG]mt_page_1001.jpg26-Feb-2018 17:19 81K 
[   ]multo_instructions.pdf26-Feb-2018 17:19 945K 
[IMG]museum-at-night.jpg26-Feb-2018 17:19 47K 
[IMG]museum-fun.jpg26-Feb-2018 17:19 17K 
[IMG]museum-kids.jpg26-Feb-2018 17:19 26K 
[IMG]museum-logo.png26-Feb-2018 17:19 16K 
[IMG]museum-main-web.jpg26-Feb-2018 17:19 37K 
[IMG]museum-of-technology.jpg26-Feb-2018 17:19 18K 
[IMG]museum-sponsors.jpg26-Feb-2018 17:19 17K 
[IMG]museum-thanks.jpg26-Feb-2018 17:19 64K 
[   ]museum-vision-brochure-web-version.pdf26-Feb-2018 17:19 4.2M 
[   ]museumch22137ch22143ads.pdf26-Feb-2018 17:19 73K 
[IMG]musuem-microsoft-net.jpg26-Feb-2018 17:19 45K 
[IMG]my-computer-story-9.jpg26-Feb-2018 17:19 13K 
[IMG]my_computer_story_1.jpg26-Feb-2018 17:19 141K 
[IMG]my_computer_story_2.jpg26-Feb-2018 17:19 34K 
[IMG]my_computer_story_3.jpg26-Feb-2018 17:19 11K 
[IMG]my_computer_story_4.jpg26-Feb-2018 17:19 98K 
[IMG]my_computer_story_6.jpg26-Feb-2018 17:19 22K 
[IMG]my_computer_story_7.jpg26-Feb-2018 17:19 19K 
[IMG]my_computer_story_8.jpg26-Feb-2018 17:19 24K 
[IMG]myz80-user-guide-icon.jpg03-Mar-2018 16:00 65K 
[   ]myz80-user-guide.pdf08-Mar-2018 12:00 6.2M 
[IMG]nao.jpg26-Feb-2018 17:19 40K 
[   ]nascom-basic.pdf03-Mar-2018 16:03 1.3M 
[IMG]nascom-icon.jpg03-Mar-2018 16:00 22K 
[   ]nationalcurriculumandcchks1-2.pdf26-Feb-2018 17:19 70K 
[   ]nationalcurriculumandcchks3.pdf26-Feb-2018 17:19 64K 
[   ]nec_spinwriter_manual.pdf26-Feb-2018 17:19 1.1M 
[   ]network_communication_systems.pdf26-Feb-2018 17:19 3.1M 
[IMG]neville_talk_aug_2019.jpg13-Aug-2019 20:15 654K 
[IMG]new_hlf_logo_2019.jpg03-Jun-2019 11:52 214K 
[IMG]new_lcs_logo.jpg06-May-2019 19:20 307K 
[IMG]newbrain.png26-Feb-2018 17:19 55K 
[IMG]news.jpg26-Feb-2018 17:19 59K 
[IMG]newspic-35104.jpg26-Feb-2018 17:19 34K 
[   ]nicoletoverview.pdf26-Feb-2018 17:19 17K 
[IMG]nintendo-life-gaming.jpg26-Feb-2018 17:19 58K 
[IMG]nintendo-stuff.jpg26-Feb-2018 17:19 42K 
[IMG]nintvsseg_emailer.jpg19-Jul-2019 10:14 73K 
[IMG]nintvsseg_emailer2.jpg19-Jul-2019 10:42 103K 
[IMG]nintvssegbutton.jpg19-Jul-2019 11:09 6.6K 
[IMG]nippy.jpg03-Jun-2019 12:08 20K 
[IMG]nl-gn.jpg23-Jul-2018 09:48 76K 
[IMG]nl-night.jpg29-Jul-2018 09:22 46K 
[IMG]nokia.png26-Feb-2018 17:19 60K 
[IMG]north-one-television.gif26-Feb-2018 17:19 1.8K 
[IMG]norwich.jpg26-Feb-2018 17:19 17K 
[IMG]nostalgic-xmas.png26-Feb-2018 17:19 356K 
[IMG]not-your-department.gif26-Feb-2018 17:19 1.1K 
[   ]nucleus.pdf26-Feb-2018 17:19 3.8M 
[IMG]nunn-logos.jpg26-Feb-2018 17:19 11K 
[IMG]october_half-term_promo.jpg26-Feb-2018 17:19 211K 
[IMG]odyessey37_cropped.jpg26-Feb-2018 17:19 28K 
[IMG]old-gold-tech.jpg26-Feb-2018 17:19 46K 
[IMG]oldgoldtech-logo.jpg26-Feb-2018 17:19 11K 
[IMG]oliver-email.jpg26-Feb-2018 17:19 69K 
[IMG]oliver-twins.jpg26-Feb-2018 17:19 55K 
[   ]olivetti-s6000-multi-workstation-business-computer.pdf26-Feb-2018 17:19 3.8M 
[IMG]omg-header.jpg26-Feb-2018 17:19 55K 
[IMG]one-croydon.jpg29-Dec-2018 18:59 44K 
[IMG]open-7-days.jpg26-Feb-2018 17:19 154K 
[IMG]open_university_logo.gif26-Feb-2018 17:19 1.7K 
[IMG]organiser.png26-Feb-2018 17:19 59K 
[IMG]oric_atmos.jpg26-Feb-2018 17:19 122K 
[IMG]origin350_fclft_sm.jpg26-Feb-2018 17:19 2.9K 
[SND]orion_ii_line_in_dolby_b.mp326-Feb-2018 17:19 29M 
[IMG]osborne_1.jpg26-Feb-2018 17:19 97K 
[IMG]p-domesday-discs.png26-Feb-2018 17:19 48K 
[IMG]p-domesday-documentation.png26-Feb-2018 17:19 55K 
[IMG]p-domesday-preservation.png26-Feb-2018 17:19 56K 
[IMG]p-domesday-promo-video.png26-Feb-2018 17:19 59K 
[IMG]p-domesday-reloaded.png26-Feb-2018 17:19 49K 
[IMG]p-domesday-system.png26-Feb-2018 17:19 57K 
[IMG]p1010176.jpg26-Feb-2018 17:19 29K 
[IMG]pac-lunch-shop.jpg26-Feb-2018 17:19 106K 
[IMG]page_6.jpg26-Feb-2018 17:19 17K 
[IMG]panorama-display.jpg26-Feb-2018 17:19 44K 
[IMG]panorama-office.gif26-Feb-2018 17:19 57K 
[   ]part_of_gec_brochure.pdf26-Feb-2018 17:19 375K 
[   ]patron-cch-press-release.docx26-Feb-2018 17:19 22K 
[IMG]paul-allen.jpg16-Oct-2018 11:50 109K 
[IMG]pcard.png26-Feb-2018 17:19 29K 
[IMG]pcworld.png26-Feb-2018 17:19 145K 
[   ]pdf-6-time-sharing-software.pdf26-Feb-2018 17:19 3.2M 
[IMG]pdf1.png26-Feb-2018 17:19 28K 
[IMG]pdf_logo-standard.png26-Feb-2018 17:19 16K 
[   ]pdp-7-dec-data-processor.pdf26-Feb-2018 17:19 1.0M 
[   ]pdp-7-dec.pdf26-Feb-2018 17:19 1.2M 
[IMG]people-1.jpg26-Feb-2018 17:19 22K 
[IMG]people.jpg26-Feb-2018 17:19 32K 
[   ]peripherals.pdf26-Feb-2018 17:19 1.9M 
[IMG]perplexed.jpg26-Feb-2018 17:19 74K 
[IMG]pet.png26-Feb-2018 17:19 56K 
[IMG]pet_article1.jpg26-Feb-2018 17:19 170K 
[IMG]peter_snow.jpg26-Feb-2018 17:19 7.6K 
[IMG]peter_snow_and_jason.jpg26-Feb-2018 17:19 57K 
[   ]peterwoodobit.pdf22-Jan-2019 16:58 467K 
[IMG]petmicroscope.jpg26-Feb-2018 17:19 134K 
[IMG]petmicroscope_smaller.jpg26-Feb-2018 17:19 29K 
[IMG]petsavestime2a.jpg26-Feb-2018 17:19 176K 
[IMG]petty_cury_teashop.jpg14-Aug-2019 10:58 52K 
[IMG]pettycurylyons.png13-Aug-2019 21:13 776K 
[IMG]phil_chair.jpg26-Feb-2018 17:19 55K 
[IMG]phone1.png26-Feb-2018 17:19 124K 
[IMG]photo_1.jpg26-Feb-2018 17:19 118K 
[IMG]photo_2.jpg26-Feb-2018 17:19 129K 
[IMG]photo_3.jpg26-Feb-2018 17:19 55K 
[IMG]photo_4.jpg26-Feb-2018 17:19 35K 
[IMG]photo_5.jpg26-Feb-2018 17:19 121K 
[IMG]picture1.jpg23-Nov-2018 09:40 27K 
[   ]pigfx.zip03-Mar-2018 17:44 1.5M 
[IMG]plan-a-visit.gif26-Feb-2018 17:19 955  
[IMG]plan2.png26-Feb-2018 17:19 77K 
[IMG]plans_brochure.gif26-Feb-2018 17:19 5.1K 
[IMG]planx.png26-Feb-2018 17:19 438K 
[IMG]platter.png26-Feb-2018 17:19 66K 
[IMG]police-on-pong.jpg26-Feb-2018 17:19 20K 
[IMG]pong-console.jpg03-Jun-2019 14:37 109K 
[IMG]pong_console_header.jpg26-Feb-2018 17:19 38K 
[IMG]pop-up-museum-customers.jpg26-Feb-2018 17:19 7.9K 
[IMG]porteus_bbc_001_300.jpg26-Feb-2018 17:19 29K 
[IMG]portfolio-parallel.jpg26-Feb-2018 17:19 16K 
[IMG]portfolio.jpg26-Feb-2018 17:19 22K 
[IMG]post16.png26-Feb-2018 17:19 387K 
[IMG]post16x.png26-Feb-2018 17:19 73K 
[IMG]pounds2x_off.png26-Feb-2018 17:19 42K 
[IMG]power_play_logo.jpg26-Feb-2018 17:19 39K 
[IMG]power_samas_pcc.jpg26-Feb-2018 17:19 25K 
[   ]presario_3060_qs.pdf26-Feb-2018 17:19 20K 
[IMG]preserve-computing-history.jpg26-Feb-2018 17:19 65K 
[   ]press_release_-_cambridge_game_developers_showcase.pdf21-Mar-2018 14:49 650K 
[   ]press_release_final.docx14-Mar-2018 14:06 253K 
[   ]processor_performance.pdf26-Feb-2018 17:19 453K 
[IMG]prodpic-45800.jpg26-Feb-2018 17:19 79K 
[IMG]product-11260422400.jpg09-Mar-2019 20:07 103K 
[IMG]project-odyssey-public-email-header.jpg26-Feb-2018 17:19 41K 
[IMG]prop-store.jpg29-Dec-2018 21:52 289K 
[IMG]psion.jpg26-Feb-2018 17:19 56K 
[IMG]ptape.png26-Feb-2018 17:19 65K 
[IMG]punch.png26-Feb-2018 17:19 42K 
[IMG]purepwnage_link_to_us.gif.gif26-Feb-2018 17:19 1.9K 
[IMG]ql_map_cambridge001.jpg26-Feb-2018 17:19 63K 
[   ]quadboard_operation_manual.pdf26-Feb-2018 17:19 7.9M 
[   ]quadmaster_ii_operations_manual_.pdf26-Feb-2018 17:19 13M 
[IMG]quote.png26-Feb-2018 17:19 74K 
[IMG]quotebox1.png26-Feb-2018 17:19 28K 
[IMG]quotebox2.png26-Feb-2018 17:19 27K 
[IMG]quotebox3.png26-Feb-2018 17:19 26K 
[IMG]quotebox4.png26-Feb-2018 17:19 28K 
[IMG]quotebox5.png26-Feb-2018 17:19 30K 
[IMG]rachel-jnfr.jpg22-Jun-2018 14:41 91K 
[IMG]rasberry-pi-ebay.jpg26-Feb-2018 17:19 42K 
[IMG]raspberry-pi-banner.jpg26-Feb-2018 17:19 76K 
[IMG]raspberry-pi-model-a.jpg26-Feb-2018 17:19 55K 
[IMG]raspberry-pi-pcb.png26-Feb-2018 17:19 152K 
[IMG]raspberry_pi_-_hauser_studio.jpg26-Feb-2018 17:19 23K 
[IMG]raw-tv.gif26-Feb-2018 17:19 1.7K 
[   ]ray_hennessy_obit.pdf22-Jan-2019 10:05 353K 
[IMG]rc2014-web.png26-Feb-2018 17:19 135K 
[IMG]read-more.gif26-Feb-2018 17:19 1.1K 
[IMG]realvnc-logo-small.png26-Feb-2018 17:19 2.0K 
[IMG]redgate-match.gif26-Feb-2018 17:19 2.7K 
[IMG]rene-court-entrance.png26-Feb-2018 17:19 354K 
[IMG]resubscribe-button.jpg28-May-2018 20:21 4.7K 
[IMG]retro-arcade-2.jpg26-Feb-2018 17:19 21K 
[IMG]retro-arcade-games.jpg26-Feb-2018 17:19 76K 
[IMG]retro-computer-museum.jpg26-Feb-2018 17:19 62K 
[IMG]retro-pic.jpg26-Feb-2018 17:19 10K 
[IMG]retro-pic2.jpg26-Feb-2018 17:19 9.0K 
[IMG]retro-reunited.jpg26-Feb-2018 17:19 26K 
[IMG]retro_gaming.jpg26-Feb-2018 17:19 28K 
[IMG]retrocomputing.jpg26-Feb-2018 17:19 15K 
[IMG]review-trip-advisor.jpg26-Feb-2018 17:19 16K 
[IMG]revival-logo.jpg26-Feb-2018 17:19 7.2K 
[IMG]rgn-dec.jpg26-Feb-2018 17:19 39K 
[IMG]rgn-thanks.jpg26-Feb-2018 17:19 59K 
[IMG]rgn.jpg26-Feb-2018 17:19 48K 
[IMG]rhythmemailer.jpg24-May-2019 11:55 139K 
[IMG]rhythmemailer2.jpg24-May-2019 11:55 120K 
[IMG]rigs.jpg26-Feb-2018 17:19 46K 
[IMG]ripped_code.jpg26-Feb-2018 17:19 12K 
[IMG]risc-os-london-2009.gif26-Feb-2018 17:19 13K 
[IMG]risc-os-show.gif26-Feb-2018 17:19 12K 
[   ]risk_assessment_schoolvisit.pdf.doc.pdf26-Feb-2018 17:19 91K 
[IMG]robert_geoff2.jpg26-Feb-2018 17:19 12K 
[   ]robotron-kc87-repair-manual.pdf26-Feb-2018 17:19 149K 
[IMG]rockband.jpg26-Feb-2018 17:19 22K 
[   ]rockwell_900_basic_operations_1.pdf26-Feb-2018 17:19 799K 
[   ]rockwell_advanced_1.pdf26-Feb-2018 17:19 296K 
[   ]rockwell_advanced_2.pdf26-Feb-2018 17:19 76K 
[   ]rockwell_advanced_3.pdf26-Feb-2018 17:19 33K 
[   ]rockwell_advanced_4.pdf26-Feb-2018 17:19 194K 
[   ]rockwell_advanced_5.pdf26-Feb-2018 17:19 174K 
[IMG]roki.jpg08-Mar-2018 17:10 81K 
[IMG]rpi.png26-Feb-2018 17:19 57K 
[IMG]rsz_pong_068.jpg26-Feb-2018 17:19 71K 
[IMG]rvg-events-email.jpg26-Feb-2018 17:19 51K 
[IMG]rvgn-2017.png26-Feb-2018 17:19 221K 
[IMG]rvnj.jpg11-Jun-2019 11:29 83K 
[IMG]s1.jpg26-Feb-2018 17:19 111K 
[IMG]s2.jpg26-Feb-2018 17:19 145K 
[IMG]s3.jpg26-Feb-2018 17:19 83K 
[IMG]s4.jpg26-Feb-2018 17:19 172K 
[IMG]s5.jpg26-Feb-2018 17:19 82K 
[IMG]saba-quote.jpg26-Feb-2018 17:19 40K 
[IMG]sad-mac.jpg26-Feb-2018 17:19 6.1K 
[TXT]sage_ii_computer.html26-Feb-2018 17:19 14K 
[IMG]sagentia_blue_300dpi.jpg30-Sep-2018 17:42 416K 
[IMG]satm_2019_twitter.jpg12-Jul-2019 13:51 1.0M 
[IMG]school-quotes.gif26-Feb-2018 17:19 17K 
[IMG]school-visit-bbc-micro-jason.jpg26-Feb-2018 17:19 16K 
[IMG]school-visit-bbc-micro.jpg26-Feb-2018 17:19 35K 
[IMG]school-visit.jpg26-Feb-2018 17:19 38K 
[IMG]school-visits-code-basic.jpg26-Feb-2018 17:19 12K 
[IMG]school-visits-computers-get-personal.jpg26-Feb-2018 17:19 16K 
[IMG]school-visits.jpg26-Feb-2018 17:19 83K 
[IMG]schools-video-anim.gif08-May-2019 16:05 1.0M 
[IMG]scratch_and_pi.jpg26-Feb-2018 17:19 94K 
[IMG]screenshot002.jpg26-Feb-2018 17:19 252K 
[IMG]screenshot_from_2019-08-01_13-49-45.png01-Aug-2019 21:47 694K 
[IMG]screenshot_from_2019-08-01_13-49-55.png01-Aug-2019 21:47 328K 
[IMG]screenshot_from_2019-08-01_13-50-11.png01-Aug-2019 21:47 673K 
[IMG]screenshot_from_2019-08-01_13-50-57.png01-Aug-2019 21:47 236K 
[IMG]september_2017_events.jpg26-Feb-2018 17:19 665K 
[IMG]sf-1.jpg26-Feb-2018 17:19 83K 
[IMG]sf-2.jpg26-Feb-2018 17:19 83K 
[IMG]sf-3.jpg26-Feb-2018 17:19 168K 
[IMG]sf-4.jpg26-Feb-2018 17:19 107K 
[IMG]share-facebook.png26-Feb-2018 17:19 8.9K 
[IMG]share-twitter.png26-Feb-2018 17:19 8.2K 
[IMG]sid2017_facebook_banner_blue_background.jpg26-Feb-2018 17:19 414K 
[IMG]simon-video.png26-Feb-2018 17:19 227K 
[IMG]simon.jpg26-Feb-2018 17:19 7.2K 
[IMG]simon_green.gif26-Feb-2018 17:19 2.2K 
[IMG]sinclair-display.jpg26-Feb-2018 17:19 42K 
[IMG]sinclair-weekend.jpg26-Feb-2018 17:19 40K 
[IMG]sinclair.gif.gif26-Feb-2018 17:19 257  
[IMG]sinclair_3_lr.jpg26-Feb-2018 17:19 439K 
[IMG]small-hdmi-cable.jpg26-Feb-2018 17:19 3.5K 
[IMG]small-motors.jpg26-Feb-2018 17:19 6.4K 
[IMG]small-mouse_and_keyboard.jpg26-Feb-2018 17:19 4.8K 
[IMG]small-psu.jpg26-Feb-2018 17:19 4.1K 
[IMG]small-raspberry_pi.jpg26-Feb-2018 17:19 7.8K 
[IMG]small_pic.jpg26-Feb-2018 17:19 100K 
[IMG]smartphone1.png26-Feb-2018 17:19 125K 
[IMG]solder2ee.jpg26-Feb-2018 17:19 105K 
[IMG]soldering-guide-icon.jpg03-Mar-2018 17:12 40K 
[IMG]sonic-pi.jpg26-Feb-2018 17:19 45K 
[IMG]sony1.png26-Feb-2018 17:19 31K 
[IMG]sord_m5.jpg26-Feb-2018 17:19 26K 
[IMG]space-invaders-40-email.jpg28-May-2018 20:13 24K 
[IMG]space-invaders-badge.jpg26-Feb-2018 17:19 18K 
[IMG]space-invaders-cab.jpg26-Feb-2018 17:19 49K 
[IMG]space-invaders-montage.jpg26-Feb-2018 17:19 115K 
[IMG]space-invaders-more-info.jpg28-May-2018 20:46 10K 
[IMG]space_inaders_records.jpg26-Feb-2018 17:19 89K 
[IMG]space_invaders.jpg26-Feb-2018 17:19 8.2K 
[IMG]space_invaders_book.jpg26-Feb-2018 17:19 187K 
[IMG]spaceball.png26-Feb-2018 17:19 49K 
[   ]spacex_education_recources.pdf26-Feb-2018 17:19 1.0M 
[   ]spacex_instructions.pdf26-Feb-2018 17:19 962K 
[IMG]spave-invaders.jpg26-Feb-2018 17:19 13K 
[IMG]spectrum-30.gif26-Feb-2018 17:19 4.7K 
[IMG]spectrum.png26-Feb-2018 17:19 53K 
[IMG]sponsor-arm.png26-Feb-2018 17:19 1.8K 
[IMG]sponsor-micro-research.png26-Feb-2018 17:19 2.5K 
[IMG]sponsor-ou.png26-Feb-2018 17:19 9.5K 
[IMG]sponsor-pure-energy.png26-Feb-2018 17:19 4.7K 
[IMG]sponsor-red-gate.png26-Feb-2018 17:19 2.6K 
[IMG]sponsorship-brochure-2015.gif26-Feb-2018 17:19 6.4K 
[IMG]st-laurence-email-footer.png26-Feb-2018 17:19 128K 
[IMG]st-laurence-footer.png26-Feb-2018 17:19 897K 
[IMG]st_marys.png22-Nov-2018 11:45 189K 
[IMG]stand-before-after.jpg26-Feb-2018 17:19 38K 
[IMG]stand.jpg26-Feb-2018 17:19 20K 
[IMG]stem.png26-Feb-2018 17:19 35K 
[IMG]stev-furber-email.jpg26-Feb-2018 17:19 64K 
[IMG]steve-furber-video.jpg26-Feb-2018 17:19 4.3K 
[IMG]steve-jobs.jpg26-Feb-2018 17:19 40K 
[IMG]strapline-2016.jpg26-Feb-2018 17:19 2.4K 
[IMG]strapline-deliver-more.jpg26-Feb-2018 17:19 6.0K 
[IMG]strapline-support.jpg26-Feb-2018 17:19 4.1K 
[IMG]studentprep.png26-Feb-2018 17:19 369K 
[IMG]studentprep2.png26-Feb-2018 17:19 104K 
[IMG]students1.png26-Feb-2018 17:19 183K 
[IMG]summer-fun-2.jpg26-Feb-2018 17:19 365K 
[IMG]summer-fun.jpg26-Feb-2018 17:19 346K 
[IMG]summerbutton.jpg19-Jul-2019 13:14 33K 
[IMG]sumr-header.jpg26-Jul-2018 12:53 42K 
[IMG]sumr_mail_header.jpg26-Feb-2018 17:19 113K 
[IMG]swillsrolls.jpg03-Jun-2019 11:54 372K 
[IMG]synth-side-pics.gif26-Feb-2018 17:19 58K 
[IMG]synthesized_small.png26-Feb-2018 17:19 8.9K 
[   ]system_description.pdf26-Feb-2018 17:19 2.4M 
[IMG]tablet2.png26-Feb-2018 17:19 71K 
[IMG]tak-a-look.png26-Feb-2018 17:19 2.2K 
[IMG]tandy.png26-Feb-2018 17:19 63K 
[IMG]tc1.jpg14-Jun-2018 15:36 93K 
[IMG]tc2.jpg14-Jun-2018 15:36 109K 
[IMG]tc3.jpg14-Jun-2018 15:36 148K 
[IMG]teacher_days.gif26-Feb-2018 17:19 1.0K 
[   ]teacher_guidelines_3.pdf26-Feb-2018 17:19 177K 
[   ]tech_odyssey_brochure.pdf26-Feb-2018 17:19 2.5M 
[IMG]technology-evolve.jpg26-Feb-2018 17:19 38K 
[   ]tellscope.zip26-Feb-2018 17:19 7.4M 
[IMG]tellus.png26-Feb-2018 17:19 463K 
[IMG]terminal.png26-Feb-2018 17:19 66K 
[   ]terms_and_conditions_cch.pdf26-Feb-2018 17:19 107K 
[IMG]terry-harris-l21c2999.jpg26-Feb-2018 17:19 216K 
[IMG]terry-harris-l21c5976.jpg26-Feb-2018 17:19 3.6M 
[IMG]terry-harris-l21c5982.jpg26-Feb-2018 17:19 159K 
[IMG]terry-harris.jpg26-Feb-2018 17:19 60K 
[IMG]terry-harris1.jpg26-Feb-2018 17:19 102K 
[IMG]thanks-facebook.png26-Feb-2018 17:19 27K 
[IMG]thanks-google+.png26-Feb-2018 17:19 30K 
[IMG]thanks-trip_advisor.png26-Feb-2018 17:19 21K 
[IMG]thanks-twitter.png26-Feb-2018 17:19 30K 
[   ]the-control-data-cyber-205-computer-system-the_practical-supercomputer.pdf26-Feb-2018 17:19 4.0M 
[   ]the-datanets-data-communication-equipment-from-general-electric.pdf26-Feb-2018 17:19 670K 
[IMG]the-gadget-show.gif26-Feb-2018 17:19 2.8K 
[   ]the_advancef_home_computer.pdf26-Feb-2018 17:19 4.1M 
[TXT]the_amazing_tale_of_the_storytelling_workshop.html26-Feb-2018 17:19 388K 
[   ]the_ibm_personal.pdf26-Feb-2018 17:19 1.5M 
[   ]the_nicolet_1080_-_a_personal_perspective_and_some_nostalgic_reflections.pdf26-Feb-2018 17:19 741K 
[   ]the_personal_computer.pdf26-Feb-2018 17:19 4.0M 
[   ]this_is_acorn_computer.pdf26-Feb-2018 17:19 10M 
[IMG]ths-00052.jpg01-Oct-2018 11:42 2.0M 
[IMG]ths-00053.jpg22-Nov-2018 12:38 2.0M 
[IMG]ths-3.jpg26-Feb-2018 17:19 63K 
[IMG]timeline.png26-Feb-2018 17:19 33K 
[IMG]tomohiro_nishikado_space_invaders.jpg26-Feb-2018 17:19 82K 
[IMG]totaliser.jpg26-Feb-2018 17:19 8.3K 
[IMG]tour.jpg22-Nov-2018 12:01 32K 
[IMG]toycomputer.png26-Feb-2018 17:19 58K 
[IMG]toys-xmas.png26-Feb-2018 17:19 389K 
[IMG]trail-graphic.jpg26-Feb-2018 17:19 66K 
[IMG]tripadvisorcom.png26-Feb-2018 17:19 13K 
[IMG]trs-80_resized.jpg29-Jun-2019 16:55 153K 
[IMG]trusted.gif26-Feb-2018 17:19 3.4K 
[IMG]trustees-hir-res.jpg26-Feb-2018 17:19 668K 
[IMG]trustees.jpg26-Feb-2018 17:19 50K 
[IMG]tuckersoft-amstrad-cpc464.jpg29-Dec-2018 18:52 237K 
[IMG]tuckersoft-atari-800xl.jpg29-Dec-2018 17:47 237K 
[IMG]tuckersoft-colins-desk.jpg29-Dec-2018 17:01 233K 
[IMG]tuckersoft-commodore-64.jpg29-Dec-2018 20:43 206K 
[IMG]tuckersoft-dragon-spectrum.jpg29-Dec-2018 18:42 299K 
[IMG]tuckersoft-general-office.jpg29-Dec-2018 20:19 200K 
[IMG]tuckersoft-reception-desk.jpg29-Dec-2018 19:20 225K 
[IMG]tuckersoft-spectrum.jpg29-Dec-2018 20:25 243K 
[IMG]tuckersoft-spectrum2.jpg29-Dec-2018 18:52 279K 
[IMG]tuckersoft-tech-desk-2.jpg29-Dec-2018 20:32 229K 
[IMG]tuckersoft-tech-desk.jpg29-Dec-2018 19:11 266K 
[IMG]tuckersoft-toshiba-hx10.jpg29-Dec-2018 17:27 262K 
[IMG]tuckersoft-tuckers-office-1.jpg29-Dec-2018 21:54 184K 
[IMG]tuckersoft-tuckers-office-2.jpg29-Dec-2018 22:15 207K 
[IMG]tuckersoft-tuckers-office-3.jpg29-Dec-2018 22:15 201K 
[IMG]tuckersoft-tuckers-office-4.jpg29-Dec-2018 22:15 209K 
[IMG]turing.png26-Feb-2018 17:19 46K 
[IMG]tv.png26-Feb-2018 17:19 54K 
[IMG]tv_1.jpg26-Feb-2018 17:19 5.8K 
[IMG]twitter-campaign.jpg26-Feb-2018 17:19 51K 
[IMG]twitter_banner.gif26-Feb-2018 17:19 4.2K 
[IMG]twitter_logo.png26-Feb-2018 17:19 24K 
[IMG]type-22-ops-room-simulator.jpg26-Feb-2018 17:19 127K 
[IMG]type-23-ops-room-simulator.jpg26-Feb-2018 17:19 108K 
[IMG]type-42-ops-room-simulator.jpg26-Feb-2018 17:19 120K 
[IMG]typewriter001.bmp26-Feb-2018 17:19 12K 
[IMG]ucm-summer-2015-banner-590x288-v3.jpg26-Feb-2018 17:19 145K 
[IMG]ucm-summer-2016--banner-885x432-v2b.jpg26-Feb-2018 17:19 283K 
[IMG]ucm_summer-at-the-museums-web1.jpg11-Jul-2018 10:40 266K 
[IMG]udemy.png26-Feb-2018 17:19 4.2K 
[IMG]uk-gaming-email.jpg26-Feb-2018 17:19 73K 
[IMG]ukvac_logo2.jpg26-Feb-2018 17:19 11K 
[IMG]unity-header.jpg26-Feb-2018 17:19 34K 
[IMG]unitydevemail.png26-Feb-2018 17:19 347K 
[IMG]update-header.jpg26-Feb-2018 17:19 63K 
[TXT]vcc-include-unsub.txt06-Apr-2018 10:00 180  
[TXT]vcc-include.txt06-Apr-2018 09:56 1.3K 
[IMG]venue-header.jpg26-Feb-2018 17:19 38K 
[IMG]venue-quote-1.png26-Feb-2018 17:19 14K 
[IMG]venue_hire.jpg26-Feb-2018 17:19 35K 
[   ]vic-20.pdf26-Feb-2018 17:19 3.7M 
[   ]vicsoft.pdf26-Feb-2018 17:19 3.0M 
[IMG]vintage-computing-forum.png26-Feb-2018 17:19 11K 
[IMG]violet-berlin-computing-history.jpg26-Feb-2018 17:19 58K 
[IMG]violet-email.jpg26-Feb-2018 17:19 8.4K 
[TXT]visit-cost-calculator.html21-May-2019 14:01 6.5K 
[IMG]visiting-double.jpg26-Feb-2018 17:19 221K 
[IMG]visiting2.png26-Feb-2018 17:19 347K 
[   ]visitor_feedback_-_feb_2018.pdf26-Feb-2018 17:19 84K 
[IMG]volunteersfeb19_2web.png17-Feb-2019 16:26 683K 
[IMG]wakefield-09.gif26-Feb-2018 17:19 6.7K 
[IMG]wakefield-email.jpg26-Feb-2018 17:19 7.1K 
[IMG]wakefield-show-2009.gif26-Feb-2018 17:19 3.9K 
[IMG]wall-to-wall-tv.gif26-Feb-2018 17:19 1.4K 
[   ]wallace_weaving_obituary.pdf08-Jun-2019 15:38 1.3M 
[IMG]wang_pcb.jpg26-Feb-2018 17:19 121K 
[   ]way_ready_patching.pdf26-Feb-2018 17:19 97K 
[IMG]webpics.jpg09-Sep-2018 11:28 106K 
[IMG]webpics2.jpg09-Sep-2018 11:28 185K 
[IMG]webpics3.jpg09-Sep-2018 11:29 129K 
[IMG]webpics4.jpg09-Sep-2018 11:29 177K 
[IMG]webpics5.jpg09-Sep-2018 11:29 114K 
[IMG]webpics6.jpg09-Sep-2018 11:29 121K 
[IMG]webpics7.jpg09-Sep-2018 11:29 155K 
[IMG]websitebanner02.jpg26-Feb-2018 17:19 17K 
[IMG]whats_on_icon_01.jpg26-Feb-2018 17:19 3.0K 
[IMG]whats_on_icon_03.jpg26-Feb-2018 17:19 3.9K 
[IMG]whipple-museum.jpg26-Feb-2018 17:19 18K 
[   ]why_visit_cch.pdf26-Feb-2018 17:19 1.0M 
[IMG]wic-email-1.jpg15-Aug-2018 10:22 169K 
[IMG]wic-email-2.jpg15-Aug-2018 10:22 158K 
[IMG]wic-email-3.jpg15-Aug-2018 10:22 179K 
[IMG]wic-email-4.jpg15-Aug-2018 10:51 18K 
[IMG]wic-header.jpg26-Feb-2018 17:19 36K 
[IMG]wic-sponsor-footer-web.png26-Feb-2018 17:19 24K 
[   ]wierd_wired_world_-_curriculum.pdf26-Feb-2018 17:19 781K 
[IMG]women-ada-video.jpg26-Feb-2018 17:19 47K 
[IMG]women-ada.jpg26-Feb-2018 17:19 175K 
[IMG]women-anjali.jpg26-Feb-2018 17:19 258K 
[IMG]women-header.jpg26-Feb-2018 17:19 140K 
[IMG]workshop1.png26-Feb-2018 17:19 298K 
[IMG]workshop2.png26-Feb-2018 17:19 51K 
[IMG]workshop3.png26-Feb-2018 17:19 82K 
[IMG]workshop5.png26-Feb-2018 17:19 230K 
[IMG]workshop6.png26-Feb-2018 17:19 243K 
[IMG]workshop8.png26-Feb-2018 17:19 185K 
[IMG]workshops.jpg26-Feb-2018 17:19 93K 
[IMG]xbox-lan.jpg26-Feb-2018 17:19 158K 
[IMG]xbox.png26-Feb-2018 17:19 39K 
[IMG]xmas-shopping.jpg26-Feb-2018 17:19 129K 
[IMG]xmas-tree-2016.jpg26-Feb-2018 17:19 152K 
[IMG]xmax-pic.jpg26-Feb-2018 17:19 237K 
[IMG]zeroes_and_ones.jpg26-Feb-2018 17:19 136K 
[IMG]zone.png26-Feb-2018 17:19 439K 
[IMG]zone2.png26-Feb-2018 17:19 440K 
[IMG]zones.png26-Feb-2018 17:19 75K 
[   ]zx81-keyboard-connections.pdf26-Feb-2018 17:19 118K 
[IMG]zx81.jpg26-Feb-2018 17:19 84K 
[   ]zx_gaming_questionnaire.docx10-May-2018 10:30 851K 

Apache/2.2.22 (Debian) Server at www.computinghistory.org.uk Port 80